Regional Weather Roundup
Issued by NWS

Home | Current Version | Previous Version | Graphics & Text | Print | Product List | Glossary On
Versions: 1 2 3 4 5 6 7 8 9 10 11 12 13 14 15 16 17 18 19 20 21 22 23 24 25 26 27 28 29 30 31 32 33 34 35 36 37 38 39 40 41 42 43 44 45 46 47 48 49 50
000
ASUS45 KBOU 271907
RWRCO

WEATHER ROUNDUP FOR COLORADO
NATIONAL WEATHER SERVICE DENVER/BOULDER CO
100 PM MDT SAT AUG 27 2016

NOTE: "FAIR" INDICATES FEW OR NO CLOUDS BELOW 12000 FEET WITH NO
SIGNIFICANT WEATHER AND/OR OBSTRUCTIONS TO VISIBILITY.

COZ001>005-013-030-031-272000-
...NORTHWEST COLORADO...

CITY           SKY/WX    TMP DP  RH WIND       PRES   REMARKS
CRAIG          FAIR      75  31  19 VRB7      30.20F
HAYDEN         FAIR      70  30  23 NW9       30.22F
MEEKER         FAIR      73  36  25 VRB3      30.20F
MOUNT WERNER   NOT AVBL
STEAMBOAT SPGS FAIR      70  33  25 W3        30.23F
WALDEN         FAIR      66  30  26 SW9       30.30F
$$

COZ006>008-011-272000-
...WEST CENTRAL VALLEYS...

CITY           SKY/WX    TMP DP  RH WIND       PRES   REMARKS
GRAND JUNCTION FAIR      74  46  36 S10       30.15F
MONTROSE       FAIR      72  45  37 N7        30.19F
EAGLE          MOSUNNY   72  39  30 CALM      30.24F
RIFLE          FAIR      68  48  48 SE3       30.20F
DELTA          NOT AVBL
NUCLA          FAIR     N/A N/A N/A NW5       30.23F
$$

COZ017>023-064>068-272000-
...SOUTHWEST COLORADO...

CITY           SKY/WX    TMP DP  RH WIND       PRES   REMARKS
DURANGO        FAIR      72  41  32 VRB5      30.23F
CORTEZ         FAIR      73  48  41 VRB7      30.19F
PAGOSA SPRINGS FAIR      69  33  26 SW7       30.31F
TELLURIDE      PTSUNNY   55  43  64 E14       30.41F
WOLF CREEK PAS FAIR      45  34  65 SW14G24   30.58F
$$

COZ009-010-012-014-032>034-037-058>063-272000-
...CENTRAL COLORADO...

CITY           SKY/WX    TMP DP  RH WIND       PRES   REMARKS
ASPEN          FAIR      67  39  35 VRB7      30.29F
BUENA VISTA    PTSUNNY   68  33  27 SE12G17   30.28F
COPPER MTN     CLOUDY    48  32  53 CALM      30.55S
BERTHOUD PASS  PTSUNNY   41  30  65 N17       30.58R
COTTONWOOD PAS CLOUDY    61  28  29 SW12      30.41F
GUNNISON       FAIR      66  39  37 W5        30.31F
KREMMLING      FAIR      70  32  24 S7        30.27F
LEADVILLE      CLOUDY    53  30  41 SW5       30.41S
MONARCH PASS   PTSUNNY   50  30  46 SW22G29   30.64F
SALIDA         PTSUNNY   71  37  28 S13G18    30.33F
SUNLIGHT       CLOUDY    50  43  76 CALM      30.52S
WILKERSON PASS FAIR      59  32  36 SW8       30.52F
$$

COZ069>075-272000-
...SAN LUIS VALLEY/SANGRE DE CRISTO MOUNTAINS...

CITY           SKY/WX    TMP DP  RH WIND       PRES   REMARKS
ALAMOSA        FAIR      70  36  28 VRB3      30.27F
LA VETA PASS   FAIR      63  32  31 S10G23    30.45F
SAGUACHE       PTSUNNY   64  37  36 S3        30.31F
$$

COZ035-036-038>040-272000-
...NORTHERN COLORADO FRONT RANGE...

CITY           SKY/WX    TMP DP  RH WIND       PRES   REMARKS
DENVER INTL AP PTSUNNY   80  35  19 NE12      30.12F
DMNS CITY PARK   N/A     78  38  23 E5G12     30.11F
AURORA         PTSUNNY   78  35  21 NE9       30.14F
FRONT RANGE AP MOSUNNY   81  36  19 SE5       30.14F
ERIE MUNI ARPT FAIR      81  32  17 NE9       30.10F
BOULDER MUN AP FAIR      81  37  21 SE6       30.10F
CENTENNIAL     FAIR      76  33  21 VRB3      30.15F
BROOMFIELD     MOSUNNY   79  36  21 E10       30.14F
FORT COLLINS   FAIR      81  43  26 SE12G18   30.07F
LONGMONT       FAIR      83  38  20 SE6       30.10F
$$

COZ041-046-047-076>085-087-088-272000-
...PIKES PEAK/PALMER DIVIDE AND SOUTHERN FOOTHILLS...

CITY           SKY/WX    TMP DP  RH WIND       PRES   REMARKS
COLO. SPRINGS  FAIR      81  30  15 N9        30.17F
A. F. ACADEMY  PTSUNNY   73  34  23 VRB5      30.17F
SCHRIEVER AFB  NOT AVBL
ELLICOTT       NOT AVBL
FALCON         PTSUNNY   75  32  20 NE5       30.22F
FORT CARSON    MOSUNNY   78  39  24 NE5       30.14F
LIMON          CLOUDY    69  53  56 E12       30.13F
MONUMENT HILL  FAIR      70  34  26 N12       30.24F
TRINIDAD       FAIR      79  37  22 VRB5      30.13F
$$

COZ042>045-048>051-090-091-272000-
...NORTHEAST COLORADO...

CITY           SKY/WX    TMP DP  RH WIND       PRES   REMARKS
GREELEY ARPT   FAIR      79  48  34 CALM      30.09F
AKRON          FAIR      78  49  35 MISG      30.09F
BURLINGTON     FAIR      78  55  44 SE10      30.08F
WRAY           FAIR      77  59  53 SE5       30.06F
STERLING       FAIR      81  50  34 S3        30.04F
HOLYOKE        FAIR      75  61  60 CALM      30.07F
FORT MORGAN    FAIR      81  45  27 SE7       30.09F
$$

COZ086-089-092>099-272000-
...SOUTHEAST COLORADO...

CITY           SKY/WX    TMP DP  RH WIND       PRES   REMARKS
PUEBLO         FAIR      87  37  17 MISG      30.06F
LA JUNTA       FAIR      85  47  26 N8        30.04F
LAMAR          FAIR      84  55  36 VRB7      30.02F
SPRINGFIELD      N/A     81  55  40 CALM      30.07F
$$



USA.gov is the U.S. government's official web portal to all federal, state and local government web resources and services.